Starlink 34325

operational
NORAD ID: 64262 Int'l Des: 2025-120 Owner: SPXS Country: US Constellation: starlink
LEOCIRCULAR

About Starlink 34325

Description loading...

Live Position

Loading 3D Globe...

Upcoming Passes

Altitude History

Altitude vs Time

uPlot chart will show altitude changes over time

Two-Line Element Set

1 64262U 25120G 25306.39769956 .00025555 00000-0 87179-3 0 9997
2 64262 53.1588 348.2027 0001300 90.5255 269.5895 15.30206438 24426
Epoch: Nov 2, 2025 • Age: 32 hours

Current Status

Altitude 475.4 km
Velocity 7.63 km/s
Sub-Earth Point 3.53°N, 148.76°W
Launch Date Jun 4, 2025
Age 0.4 years
Type internet

Technical Details

Classification Payload
Mass 575.00 kg
Dry Mass 530.00 kg
Total Mass 575.00 kg
Length 0.30 m
Diameter 4.10 m
Span 29.00 m
Shape Box + pan
Manufacturer SPXS
Bus Type Starlink V2MO
Phase Status In Orbit
Owner/State SPXS/US

Large Constellations

Loading constellations...